[[{"header":{"parameterUnit":"m.s-1","parameterCategory":1,"la1":30.2991,"la2":30.254,"lo1":-89.0895,"lo2":-89.0444,"dy":0.0017,"dx":0.0017,"nx":28,"ny":28,"refTime":"2025-09-13T21:00:00:Z","depth":0,"parameterNumber":2,"parameterNumberName":"U-component_of_WINDS"},"data":[0,0,0,0,0,0,0,0,0,0,0,0,0,0,0,0,0,0,0,0,0,0,0,0,0,0,0,0,0,0,0,0,0,0,0,0,0,0,0,0,0,0,0,0,0,0,0,0,0,0,0,0,0,0,0,0,0,0,0.6231,0.6231,0,0.6253,0.6253,0.6254,0.6265,0.6265,0.6265,0.6265,0.6286,0.6287,0.6288,0,0,0,0,0,0,0,0,0,0,0,0,0,0.6196,0.6196,0.6231,0.6231,0.6231,0.6253,0.6253,0.6254,0.6265,0.6265,0.6265,0.6266,0.6286,0.6287,0.6288,0,0,0,0,0,0,0,0,0,0,0,0,0,0.6214,0.6196,0.6231,0.624,0.6241,0.6253,0.6253,0.6254,0.6265,0.6265,0.6265,0.6266,0.6286,0.6287,0.6288,0.6292,0,0,0.629,0.629,0,0,0,0,0,0,0,0,0.6213,0.6215,0.6238,0.6239,0.624,0.6257,0.6249,0.6266,0.6265,0.6256,0.6265,0.6266,0.6276,0.6278,0.6282,0.6293,0.6294,0.629,0.6291,0.6291,0.6291,0,0,0,0,0,0,0,0.6211,0.6214,0.624,0.6239,0.624,0.6242,0.6245,0.6252,0.6266,0.6257,0.6258,0.626,0.6277,0.6281,0.6283,0.6294,0.629,0.6291,0.6291,0.6292,0.6308,0.6308,0,0,0,0,0,0,0.6209,0.6213,0.6239,0.624,0.6226,0.6243,0.6245,0.6251,0.6266,0.6268,0.626,0.6261,0.628,0.6282,0.6283,0.6288,0.6291,0.6292,0.6292,0.6308,0.6308,0.6308,0,0,0,0,0,0,0.6208,0.6211,0.6238,0.6227,0.623,0.6243,0.625,0.6252,0.6256,0.6268,0.627,0.6262,0.628,0.6282,0.6289,0.6289,0.6292,0.6293,0.6308,0.6308,0.6308,0.6299,0,0,0,0,0,0,0.6207,0.6211,0.6213,0.6227,0.6231,0.6244,0.625,0.6252,0.6258,0.6258,0.6271,0.6273,0.628,0.6288,0.629,0.629,0.6293,0.6308,0.6308,0.6308,0.6299,0.6299,0.6298,0,0,0,0,0,0.6206,0.621,0.6213,0.6216,0.6234,0.6244,0.6247,0.6256,0.6258,0.626,0.6267,0.6272,0.6289,0.6289,0.6291,0.6292,0.6308,0.6308,0.6308,0.63,0.6299,0.6298,0,0,0,0,0,0,0.6196,0.6212,0.6216,0.6225,0.6233,0.6246,0.6249,0.6255,0.6262,0.6263,0.6273,0.6275,0.6281,0.6287,0.6287,0.6296,0.6299,0.6299,0.6292,0.6291,0.629,0.6289,0.6294,0,0,0,0,0,0.6194,0.6202,0.6215,0.6222,0.6226,0.6237,0.6241,0.6248,0.6256,0.626,0.6268,0.6276,0.6283,0.6287,0.6295,0.63,0.6302,0.6301,0.6301,0.63,0.63,0.6303,0.6302,0.6307,0.6307,0.6307,0,0,0.6192,0.6202,0.6206,0.622,0.6227,0.6234,0.624,0.6247,0.6252,0.6261,0.6268,0.6274,0.6284,0.629,0.6293,0.6295,0.6299,0.63,0.6299,0.63,0.6302,0.6302,0.6301,0.6307,0.6307,0.6307,0,0,0.6191,0.6199,0.6205,0.6212,0.6223,0.623,0.6231,0.6244,0.6248,0.6256,0.6263,0.6268,0.628,0.6286,0.6291,0.6291,0.6295,0.6292,0.6289,0.6291,0.6291,0.629,0.6289,0.6289,0.6293,0.6293,0.6293,0,0.6186,0.6198,0.6207,0.6214,0.6219,0.6228,0.6233,0.6239,0.6252,0.6255,0.6257,0.6271,0.6278,0.6286,0.6285,0.6289,0.629,0.6291,0.629,0.629,0.629,0.6289,0.6289,0.6292,0.6292,0.6292,0.6292,0,0.6191,0.6198,0.6201,0.6213,0.6219,0.6225,0.6234,0.6239,0.6244,0.625,0.6257,0.6266,0.6274,0.6276,0.6282,0.6284,0.6285,0.6288,0.6292,0.6288,0.6288,0.6288,0.6291,0.6292,0.6292,0.6292,0,0,0.6185,0.6201,0.6202,0.6207,0.622,0.6225,0.623,0.6239,0.6242,0.625,0.6254,0.6264,0.6267,0.6272,0.6278,0.628,0.6278,0.6283,0.6283,0.6281,0.628,0.6277,0.6277,0.6281,0.6281,0.6281,0.6279,0,0.6185,0.6196,0.6205,0.6212,0.6218,0.6226,0.6231,0.6238,0.6244,0.6249,0.6256,0.6262,0.6266,0.6269,0.6271,0.6277,0.6278,0.6278,0.6284,0.6284,0.6281,0.6276,0.6274,0.6272,0.6279,0.6279,0.6279,0,0.6187,0.6195,0.6203,0.6214,0.6216,0.6221,0.6228,0.6234,0.6242,0.6246,0.6251,0.6257,0.6262,0.6265,0.6271,0.6271,0.6274,0.6277,0.6278,0.6278,0.6281,0.6277,0.6271,0.6271,0.6279,0.6279,0.6279,0,0.6181,0.6194,0.62,0.6204,0.6216,0.6219,0.6224,0.6232,0.6236,0.6243,0.6246,0.6253,0.6256,0.6261,0.6268,0.627,0.6274,0.6277,0.6276,0.6276,0.6277,0.6277,0.6271,0.6279,0.6279,0.6279,0.6279,0,0.6181,0.6185,0.6197,0.6201,0.6206,0.6215,0.6219,0.6225,0.6231,0.6236,0.6243,0.6246,0.6256,0.626,0.6265,0.627,0.6271,0.6274,0.6275,0.6273,0.6273,0.6275,0.6275,0.6279,0.6279,0.6279,0.6279,0,0.6175,0.6184,0.6191,0.6202,0.6204,0.6207,0.6216,0.6219,0.6225,0.6231,0.6232,0.6241,0.6247,0.6254,0.6262,0.6266,0.6269,0.6271,0.6266,0.6267,0.6266,0.6266,0.6261,0.6261,0.6269,0.6269,0.6269,0,0.6174,0.6178,0.6189,0.6192,0.6197,0.6203,0.6207,0.6215,0.6219,0.6228,0.623,0.6236,0.6242,0.625,0.6257,0.6262,0.6265,0.6263,0.6266,0.6263,0.6264,0.6264,0.6264,0.6262,0.6262,0.6262,0.6262,0,0.6172,0.6175,0.6181,0.6188,0.6193,0.6199,0.6205,0.6208,0.6217,0.6221,0.6227,0.6231,0.6239,0.6244,0.6251,0.6255,0.626,0.6261,0.6261,0.6259,0.6255,0.6257,0.6264,0.6261,0.6261,0.6261,0.6261,0.6261,0.6168,0.6171,0.6179,0.6185,0.6191,0.6196,0.6199,0.6205,0.6211,0.6218,0.6222,0.6227,0.6234,0.6243,0.6247,0.6251,0.6253,0.6253,0.6253,0.6253,0.6252,0.6255,0.6252,0.6252,0.6252,0.6252,0.6252,0,0.6165,0.617,0.6176,0.6184,0.6189,0.6193,0.6199,0.6203,0.6207,0.6213,0.6218,0.6224,0.6229,0.6236,0.6242,0.6243,0.6246,0.6245,0.6244,0.6245,0.625,0.6249,0.6243,0.6243,0.6243,0.6243,0.6243,0.6243,0.6164,0.6169,0.6173,0.6181,0.6186,0.6191,0.6195,0.6199,0.6204,0.621,0.6215,0.6219,0.6225,0.6231,0.6236,0.6237,0.6239,0.6237,0.6239,0.6244,0.6245,0.6246,0.6245,0.6237,0.6237,0.6234,0.6234,0.6234]},{"header":{"parameterUnit":"m.s-1","parameterCategory":1,"la1":30.2991,"la2":30.254,"lo1":-89.0895,"lo2":-89.0444,"dy":0.0017,"dx":0.0017,"nx":28,"ny":28,"refTime":"2025-09-13T21:00:00:Z","depth":0,"parameterNumber":3,"parameterNumberName":"V-component_of_WINDS"},"data":[0,0,0,0,0,0,0,0,0,0,0,0,0,0,0,0,0,0,0,0,0,0,0,0,0,0,0,0,0,0,0,0,0,0,0,0,0,0,0,0,0,0,0,0,0,0,0,0,0,0,0,0,0,0,0,0,0,0,0.9669,0.9668,0,0.9604,0.9603,0.9602,0.9547,0.9546,0.9545,0.9545,0.9478,0.9476,0.9475,0,0,0,0,0,0,0,0,0,0,0,0,0,0.9741,0.974,0.9669,0.9668,0.9667,0.9604,0.9603,0.9602,0.9547,0.9546,0.9545,0.9544,0.9478,0.9477,0.9475,0,0,0,0,0,0,0,0,0,0,0,0,0,0.9697,0.974,0.9669,0.9632,0.9628,0.9604,0.9603,0.9602,0.9547,0.9546,0.9545,0.9544,0.9478,0.9477,0.9475,0.9483,0,0,0.9469,0.9469,0,0,0,0,0,0,0,0,0.9699,0.9694,0.9638,0.9634,0.963,0.9582,0.9604,0.9562,0.9547,0.9578,0.9545,0.9544,0.9513,0.9508,0.9498,0.948,0.9477,0.9469,0.9468,0.9467,0.9467,0,0,0,0,0,0,0,0.9702,0.9696,0.9643,0.9637,0.9632,0.9617,0.961,0.9596,0.9551,0.9575,0.9571,0.9564,0.9511,0.95,0.9496,0.9476,0.9469,0.9468,0.9467,0.9466,0.9457,0.9458,0,0,0,0,0,0,0.9711,0.9699,0.9645,0.9641,0.9663,0.9617,0.9609,0.9599,0.9551,0.9543,0.9565,0.9561,0.9504,0.9499,0.9494,0.9498,0.9467,0.9466,0.9465,0.9456,0.9457,0.9458,0,0,0,0,0,0,0.9713,0.9707,0.9648,0.9669,0.966,0.9617,0.9606,0.9598,0.9587,0.9544,0.9535,0.9562,0.9503,0.9496,0.9485,0.9495,0.9465,0.9463,0.9455,0.9457,0.9458,0.9508,0,0,0,0,0,0,0.9716,0.9708,0.9711,0.967,0.9659,0.9641,0.9606,0.9597,0.9584,0.958,0.9539,0.9532,0.9502,0.9488,0.9484,0.9492,0.9462,0.9454,0.9456,0.9457,0.9505,0.9511,0.9516,0,0,0,0,0,0.9718,0.9728,0.9712,0.9706,0.9663,0.9642,0.9636,0.9602,0.9585,0.9588,0.9559,0.9533,0.9495,0.9488,0.9482,0.949,0.9453,0.9455,0.9457,0.9503,0.951,0.9515,0,0,0,0,0,0,0.9773,0.9722,0.9703,0.97,0.9676,0.9633,0.9635,0.961,0.959,0.9586,0.9543,0.9535,0.9528,0.9508,0.9501,0.9494,0.947,0.9471,0.9507,0.9513,0.9518,0.9523,0.946,0,0,0,0,0,0.9784,0.9772,0.9729,0.973,0.9719,0.9679,0.9669,0.9644,0.9617,0.9606,0.9577,0.9551,0.9533,0.9522,0.9503,0.9502,0.9491,0.9504,0.951,0.9514,0.9515,0.9511,0.9516,0.9464,0.9464,0.9464,0,0,0.9808,0.9779,0.9774,0.974,0.9718,0.9706,0.9671,0.9659,0.9649,0.9604,0.9592,0.9569,0.9537,0.9531,0.9527,0.9514,0.9527,0.9516,0.952,0.9519,0.9513,0.9518,0.9522,0.9466,0.9466,0.9465,0,0,0.9845,0.9823,0.982,0.9799,0.9766,0.9739,0.9739,0.9699,0.9682,0.9669,0.9634,0.9621,0.9591,0.9569,0.9554,0.9581,0.9555,0.9576,0.9603,0.9599,0.9603,0.9606,0.9614,0.9618,0.9577,0.9577,0.9577,0,0.9879,0.9859,0.9822,0.9812,0.9798,0.9756,0.9753,0.9733,0.9696,0.9687,0.9673,0.9633,0.9609,0.9596,0.9602,0.9592,0.9588,0.958,0.9606,0.9609,0.9611,0.9618,0.9621,0.958,0.958,0.9579,0.9579,0,0.9901,0.9888,0.989,0.9855,0.984,0.9834,0.9795,0.9785,0.9761,0.9735,0.9721,0.969,0.9663,0.9658,0.9635,0.9641,0.9634,0.9614,0.9589,0.9619,0.9625,0.9628,0.9584,0.9583,0.9582,0.9581,0,0,0.9972,0.9915,0.9916,0.9898,0.9858,0.9847,0.9838,0.9812,0.9803,0.9778,0.9768,0.9743,0.9723,0.9706,0.968,0.9677,0.9698,0.9656,0.9655,0.9664,0.97,0.9716,0.9719,0.968,0.9681,0.9681,0.9703,0,1.0001,0.9983,0.9948,0.9941,0.9927,0.9886,0.9878,0.9852,0.9827,0.9811,0.9783,0.9766,0.9742,0.9731,0.9726,0.9696,0.9704,0.9694,0.967,0.9669,0.9679,0.9723,0.9739,0.9761,0.9705,0.9705,0.9705,0,1.0034,1.0011,1.0002,0.9961,0.9954,0.9947,0.9919,0.9905,0.9873,0.9855,0.9836,0.9806,0.9793,0.9771,0.9751,0.9745,0.9733,0.9717,0.9716,0.9712,0.9689,0.9719,0.9767,0.977,0.9709,0.9709,0.9708,0,1.0084,1.0051,1.0041,1.0027,0.998,0.9975,0.9955,0.9923,0.9909,0.9884,0.9874,0.9848,0.9834,0.9814,0.9778,0.9766,0.9761,0.9737,0.9745,0.9746,0.9746,0.9746,0.9792,0.9739,0.9739,0.9739,0.9739,0,1.012,1.0116,1.0062,1.0056,1.005,1.0009,1.0004,0.998,0.9951,0.9938,0.9901,0.989,0.9844,0.9827,0.9798,0.9785,0.9779,0.9763,0.9756,0.9766,0.9768,0.9757,0.9754,0.974,0.974,0.974,0.974,0,1.0176,1.014,1.0126,1.0081,1.007,1.0067,1.0028,1.002,0.9992,0.9976,0.997,0.9927,0.9905,0.9867,0.9834,0.9815,0.9806,0.9794,0.9817,0.9812,0.9822,0.9821,0.9862,0.9864,0.9811,0.9812,0.9813,0,1.0201,1.0196,1.0151,1.014,1.0121,1.0104,1.0089,1.0049,1.0034,0.9997,0.9993,0.9968,0.9945,0.9911,0.9876,0.985,0.9836,0.9852,0.9832,0.9842,0.9835,0.9835,0.9834,0.9857,0.9857,0.9858,0.9859,0,1.0249,1.0231,1.0211,1.0184,1.0167,1.0145,1.012,1.0113,1.0066,1.0052,1.0028,1.0011,0.9977,0.9951,0.992,0.9898,0.987,0.9865,0.9865,0.9876,0.9889,0.988,0.9829,0.9864,0.9864,0.9863,0.9863,0.9863,1.0289,1.0282,1.0249,1.0227,1.0204,1.0182,1.0171,1.0142,1.0122,1.0091,1.0068,1.0046,1.0012,0.9967,0.9946,0.9928,0.9915,0.9916,0.9916,0.9917,0.992,0.9892,0.9922,0.9922,0.9921,0.9921,0.9921,0,1.0334,1.031,1.0291,1.0257,1.0239,1.0215,1.0186,1.0172,1.0154,1.0125,1.0103,1.0076,1.0051,1.0013,0.9985,0.9977,0.9963,0.997,0.997,0.9965,0.9933,0.9935,0.9982,0.9982,0.9982,0.9982,0.9982,0.9982,1.0355,1.0342,1.032,1.0295,1.0271,1.0249,1.0234,1.0212,1.0189,1.016,1.0139,1.0115,1.0082,1.005,1.0026,1.0015,1.0006,1.0017,1.0002,0.9973,0.9968,0.9962,0.9964,1.0016,1.0016,1.0035,1.0036,1.0036]}]]